FW8672 Weather Reports


time (UTC)temp
C
wind
direction
speed
KPH
gust
KPH
rain 1hr
cm
rain 24hr
cm
rain mn
cm
humidity
%
barometer
mb
20260507134844 25 172 3.2 12.9 0.00 0.00 0.00 65 1015.0
20260507134535 24 212 6.4 12.9 0.00 0.00 0.00 65 1015.0
20260507134337 24 207 6.4 11.3 0.00 0.00 0.00 65 1015.0
20260507133849 24 211 4.8 9.7 0.00 0.00 0.00 66 1015.0
20260507133333 24 230 4.8 12.9 0.00 0.00 0.00 66 1015.1
20260507133040 23 190 3.2 12.9 0.00 0.00 0.00 66 1015.1
20260507132825 24 189 4.8 12.9 0.00 0.00 0.00 67 1015.2
20260507132330 23 196 3.2 9.7 0.00 0.00 0.00 67 1015.0
20260507131823 23 231 4.8 9.7 0.00 0.00 0.00 67 1015.0
20260507131546 23 217 0.0 4.8 0.00 0.00 0.00 68 1015.0
20260507131330 23 197 3.2 9.7 0.00 0.00 0.00 68 1015.1
20260507130903 23 216 3.2 9.7 0.00 0.00 0.00 68 1015.1
20260507130355 23 215 3.2 8.0 0.00 0.00 0.00 69 1014.9
20260507130005 22 219 1.6 8.0 0.00 0.00 0.00 69 1014.7
20260507125907 23 219 4.8 8.0 0.00 0.00 0.00 69 1014.8
20260507125330 22 192 3.2 6.4 0.00 0.00 0.00 70 1014.8
20260507124822 22 130 1.6 4.8 0.00 0.00 0.00 71 1015.0
20260507124544 22 127 0.0 4.8 0.00 0.00 0.00 72 1015.0
20260507124336 22 59 1.6 3.2 0.00 0.00 0.00 72 1015.0
20260507123840 21 59 0.0 1.6 0.00 0.00 0.00 73 1015.0
20260507123332 21 59 0.0 1.6 0.00 0.00 0.00 74 1015.0
20260507123046 21 58 0.0 1.6 0.00 0.00 0.00 74 1015.0
20260507122842 21 58 0.0 1.6 0.00 0.00 0.00 75 1015.1
20260507122327 21 58 0.0 1.6 0.00 0.00 0.00 75 1015.1
20260507121840 21 58 0.0 1.6 0.00 0.00 0.00 76 1015.2
20260507121551 20 58 0.0 1.6 0.00 0.00 0.00 76 1015.1
20260507121324 20 58 0.0 3.2 0.00 0.00 0.00 77 1015.2
20260507120837 20 58 0.0 3.2 0.00 0.00 0.00 77 1015.2
20260507120329 20 58 0.0 0.0 0.00 0.00 0.00 77 1015.3
20260507120056 20 58 0.0 1.6 0.00 0.00 0.00 77 1015.2
20260507115843 20 58 0.0 4.8 0.00 0.00 0.00 77 1015.2
20260507115326 20 58 0.0 4.8 0.00 0.00 0.00 78 1015.4
20260507114855 20 58 0.0 6.4 0.00 0.00 0.00 78 1015.5
20260507114518 19 57 0.0 6.4 0.00 0.00 0.00 78 1015.4
20260507114327 20 58 1.6 6.4 0.00 0.00 0.00 78 1015.5
20260507113839 19 41 1.6 4.8 0.00 0.00 0.00 78 1015.4
20260507113323 19 41 1.6 4.8 0.00 0.00 0.00 78 1015.2
20260507113023 19 55 0.0 4.8 0.00 0.00 0.00 78 1015.0
20260507112836 19 169 0.0 1.6 0.00 0.00 0.00 78 1015.2
20260507112349 19 169 0.0 1.6 0.00 0.00 0.00 78 1015.0
20260507111835 19 169 0.0 1.6 0.00 0.00 0.00 78 1015.0
20260507111527 18 169 0.0 1.6 0.00 0.00 0.00 78 1014.9
20260507111326 19 169 0.0 0.0 0.00 0.00 0.00 78 1014.9
20260507110839 19 169 0.0 1.6 0.00 0.00 0.00 78 1014.8
20260507110322 19 169 0.0 1.6 0.00 0.00 0.00 78 1014.7
20260507110032 18 169 0.0 0.0 0.00 0.00 0.00 78 1014.5
20260507105835 19 169 0.0 0.0 0.00 0.00 0.00 78 1014.5
20260507105348 18 169 0.0 0.0 0.00 0.00 0.00 77 1014.3
20260507104852 18 169 0.0 0.0 0.00 0.00 0.00 77 1014.3
20260507104524 18 169 0.0 0.0 0.00 0.00 0.00 77 1014.2
20260507104324 18 169 0.0 0.0 0.00 0.00 0.00 77 1014.2
20260507103837 19 169 0.0 0.0 0.00 0.00 0.00 77 1014.2
20260507103320 19 169 0.0 0.0 0.00 0.00 0.00 77 1014.2
20260507103023 18 169 0.0 0.0 0.00 0.00 0.00 77 1014.0
20260507102853 18 169 0.0 0.0 0.00 0.00 0.00 77 1014.1
20260507102325 18 169 0.0 0.0 0.00 0.00 0.00 77 1014.2
20260507101838 19 169 0.0 0.0 0.00 0.00 0.00 76 1014.3
20260507101508 18 169 0.0 0.0 0.00 0.00 0.00 77 1014.2
20260507101322 19 169 0.0 0.0 0.00 0.00 0.00 76 1014.2
20260507100832 19 169 0.0 0.0 0.00 0.00 0.00 76 1014.4
20260507100342 19 169 0.0 0.0 0.00 0.00 0.00 76 1014.4
20260507100020 18 169 0.0 0.0 0.00 0.00 0.00 76 1014.3
20260507095846 19 169 0.0 0.0 0.00 0.00 0.00 76 1014.3
20260507095337 19 169 0.0 0.0 0.00 0.00 0.00 76 1014.3
20260507094830 19 169 0.0 0.0 0.00 0.00 0.00 76 1014.2
20260507094601 19 169 0.0 0.0 0.00 0.00 0.00 76 1014.3
20260507094343 19 169 0.0 0.0 0.00 0.00 0.00 76 1014.3
20260507093827 19 169 0.0 0.0 0.00 0.00 0.00 75 1014.3
20260507093400 19 169 0.0 0.0 0.00 0.00 0.00 75 1014.3
20260507093038 19 169 0.0 0.0 0.00 0.00 0.00 75 1014.1
20260507092832 19 169 0.0 0.0 0.00 0.00 0.00 75 1014.1
20260507092336 19 169 0.0 0.0 0.00 0.00 0.00 75 1014.2
20260507091828 20 169 0.0 0.0 0.00 0.00 0.00 74 1014.3
20260507091555 19 169 0.0 0.0 0.00 0.00 0.00 74 1014.2
20260507091341 20 169 0.0 0.0 0.00 0.00 0.00 74 1014.2
20260507090825 20 169 0.0 0.0 0.00 0.00 0.00 74 1014.0
20260507090338 20 169 0.0 0.0 0.00 0.00 0.00 74 1013.9
20260507090108 20 169 0.0 0.0 0.00 0.00 0.00 74 1013.7
20260507085822 20 169 0.0 0.0 0.00 0.00 0.00 74 1013.7
20260507085335 20 169 0.0 0.0 0.00 0.00 0.00 74 1013.7
20260507084827 20 169 0.0 0.0 0.00 0.00 0.00 74 1013.3
20260507084547 20 169 0.0 0.0 0.00 0.00 0.00 74 1013.2
20260507084340 20 169 0.0 0.0 0.00 0.00 0.00 74 1013.2
20260507083824 20 169 0.0 1.6 0.00 0.00 0.00 73 1013.3
20260507083337 20 169 0.0 1.6 0.00 0.00 0.00 73 1013.1
20260507083100 20 169 0.0 0.0 0.00 0.00 0.00 73 1013.0
20260507082821 20 169 0.0 0.0 0.00 0.00 0.00 73 1012.9
20260507082329 20 169 0.0 1.6 0.00 0.00 0.00 72 1012.9
20260507081822 20 169 0.0 1.6 0.00 0.00 0.00 72 1012.9
20260507081602 20 169 0.0 0.0 0.00 0.00 0.00 72 1012.8
20260507081326 21 169 0.0 0.0 0.00 0.00 0.00 71 1012.9
20260507080839 21 169 0.0 0.0 0.00 0.00 0.00 71 1013.0
20260507080332 21 169 0.0 0.0 0.00 0.00 0.00 70 1012.9
20260507080103 21 169 0.0 0.0 0.00 0.00 0.00 70 1013.0
20260507075836 21 169 0.0 0.0 0.00 0.00 0.00 70 1013.1
20260507075349 21 169 0.0 0.0 0.00 0.00 0.00 69 1013.1
20260507074821 21 169 0.0 0.0 0.00 0.00 0.00 69 1013.0
20260507074547 21 169 0.0 0.0 0.00 0.00 0.00 68 1013.0
20260507074334 22 169 0.0 0.0 0.00 0.00 0.00 68 1013.0
20260507073838 22 169 0.0 0.0 0.00 0.00 0.00 68 1013.1
20260507073350 22 169 0.0 1.6 0.00 0.00 0.00 68 1013.2
20260507073031 22 169 0.0 3.2 0.00 0.00 0.00 68 1013.1
20260507072822 22 169 0.0 3.2 0.00 0.00 0.00 68 1013.2
20260507072326 22 168 0.0 3.2 0.00 0.00 0.00 67 1013.4
20260507071837 22 169 0.0 3.2 0.00 0.00 0.00 67 1013.4
20260507071532 22 168 0.0 3.2 0.00 0.00 0.00 67 1013.4
20260507071329 22 168 0.0 3.2 0.00 0.00 0.00 67 1013.5
20260507070843 22 169 0.0 1.6 0.00 0.00 0.00 67 1013.7
20260507070326 22 169 0.0 1.6 0.00 0.00 0.00 67 1013.6
20260507070050 22 169 0.0 3.2 0.00 0.00 0.00 67 1013.5
20260507065821 22 169 0.0 3.2 0.00 0.00 0.00 67 1013.6
20260507065324 22 169 0.0 3.2 0.00 0.00 0.00 67 1013.5
20260507064853 22 169 0.0 3.2 0.00 0.00 0.00 66 1013.7
20260507064520 22 169 0.0 4.8 0.00 0.00 0.00 66 1013.7
20260507064325 22 166 1.6 4.8 0.00 0.00 0.00 66 1013.8
20260507063838 22 163 1.6 4.8 0.00 0.00 0.00 66 1013.8
20260507063321 22 146 0.0 4.8 0.00 0.00 0.00 66 1013.9
20260507063024 22 146 0.0 4.8 0.00 0.00 0.00 66 1013.9
20260507062834 22 130 1.6 8.0 0.00 0.00 0.00 66 1014.0
20260507062347 22 190 0.0 8.0 0.00 0.00 0.00 66 1014.1
20260507061831 22 177 0.0 3.2 0.00 0.00 0.00 66 1014.2
20260507061532 22 175 0.0 3.2 0.00 0.00 0.00 65 1014.2
20260507061324 22 175 0.0 3.2 0.00 0.00 0.00 65 1014.3
20260507060837 22 174 0.0 1.6 0.00 0.00 0.00 65 1014.5
20260507060321 22 173 0.0 3.2 0.00 0.00 0.00 65 1014.7
20260507060033 22 173 0.0 3.2 0.00 0.00 0.00 65 1014.7
20260507055834 22 173 1.6 3.2 0.00 0.00 0.00 65 1014.7
20260507055347 22 174 0.0 3.2 0.00 0.00 0.00 65 1014.7
20260507054851 22 172 0.0 1.6 0.00 0.00 0.00 65 1014.7
20260507054522 22 172 0.0 6.4 0.00 0.00 0.00 65 1014.6
20260507054343 22 172 0.0 6.4 0.00 0.00 0.00 64 1014.7
20260507053835 22 180 0.0 3.2 0.00 0.00 0.00 64 1014.8
20260507053348 23 180 0.0 1.6 0.00 0.00 0.00 64 1014.9
20260507053003 22 180 0.0 3.2 0.00 0.00 0.00 64 1014.9
20260507052832 23 180 0.0 3.2 0.00 0.00 0.00 64 1014.9
20260507052324 23 180 0.0 1.6 0.00 0.00 0.00 64 1015.0
20260507051837 23 180 0.0 4.8 0.00 0.00 0.00 64 1015.2
20260507051507 22 180 0.0 4.8 0.00 0.00 0.00 64 1015.0
20260507051342 23 181 0.0 4.8 0.00 0.00 0.00 64 1015.1
20260507050901 23 181 1.6 4.8 0.00 0.00 0.00 63 1015.1
20260507050323 23 182 0.0 3.2 0.00 0.00 0.00 63 1015.2
20260507050035 23 183 0.0 3.2 0.00 0.00 0.00 63 1015.1
20260507045836 23 182 1.6 3.2 0.00 0.00 0.00 63 1015.0
20260507045348 23 183 1.6 6.4 0.00 0.00 0.00 63 1015.0
20260507044832 23 182 1.6 6.4 0.00 0.00 0.00 63 1015.2
20260507044546 23 200 1.6 4.8 0.00 0.00 0.00 63 1015.0
20260507044325 23 200 1.6 9.7 0.00 0.00 0.00 63 1014.8
20260507043829 23 169 3.2 9.7 0.00 0.00 0.00 63 1015.0
20260507043321 23 206 3.2 6.4 0.00 0.00 0.00 62 1015.0
20260507043044 23 182 0.0 6.4 0.00 0.00 0.00 62 1014.9
20260507042835 23 182 3.2 6.4 0.00 0.00 0.00 62 1014.9
20260507042338 23 156 1.6 9.7 0.00 0.00 0.00 62 1015.0
20260507041831 23 150 4.8 11.3 0.00 0.00 0.00 61 1015.2
20260507041550 23 184 1.6 11.3 0.00 0.00 0.00 61 1015.1
20260507041345 23 173 4.8 11.3 0.00 0.00 0.00 61 1015.2
20260507040829 23 207 3.2 8.0 0.00 0.00 0.00 61 1015.2
20260507040343 23 201 3.2 8.0 0.00 0.00 0.00 61 1015.1
20260507040033 23 194 3.2 8.0 0.00 0.00 0.00 60 1015.1
20260507035835 23 196 3.2 6.4 0.00 0.00 0.00 61 1015.3
20260507035348 23 195 3.2 6.4 0.00 0.00 0.00 61 1015.5
20260507034830 23 222 3.2 6.4 0.00 0.00 0.00 61 1015.5
20260507034514 23 178 0.0 4.8 0.00 0.00 0.00 61 1015.4
20260507034320 23 178 1.6 4.8 0.00 0.00 0.00 61 1015.4
20260507033833 23 178 1.6 4.8 0.00 0.00 0.00 61 1015.3
20260507033333 23 172 1.6 4.8 0.00 0.00 0.00 61 1015.4
20260507033019 23 175 1.6 4.8 0.00 0.00 0.00 61 1015.3
20260507032825 23 171 3.2 4.8 0.00 0.00 0.00 62 1015.3
20260507032339 23 176 1.6 4.8 0.00 0.00 0.00 62 1015.2
20260507031853 23 184 1.6 3.2 0.00 0.00 0.00 62 1015.4
20260507031503 23 184 0.0 4.8 0.00 0.00 0.00 62 1015.4
20260507031336 23 184 1.6 4.8 0.00 0.00 0.00 62 1015.4
20260507030829 23 180 3.2 4.8 0.00 0.00 0.00 62 1015.4
20260507030342 23 184 3.2 4.8 0.00 0.00 0.00 62 1015.5
20260507030008 23 171 0.0 4.8 0.00 0.00 0.00 62 1015.3
20260507025845 23 176 1.6 4.8 0.00 0.00 0.00 62 1015.3
20260507025337 23 178 1.6 6.4 0.00 0.00 0.00 62 1015.2
20260507024830 23 230 1.6 4.8 0.00 0.00 0.00 62 1015.4
20260507024607 23 230 1.6 4.8 0.00 0.00 0.00 62 1015.3
20260507024343 23 230 1.6 4.8 0.00 0.00 0.00 62 1015.3
20260507023826 23 232 1.6 4.8 0.00 0.00 0.00 62 1015.1
20260507023339 24 232 1.6 4.8 0.00 0.00 0.00 61 1015.4
20260507023102 23 161 1.6 4.8 0.00 0.00 0.00 61 1015.3
20260507022823 24 161 1.6 4.8 0.00 0.00 0.00 61 1015.3
20260507022336 24 182 1.6 6.4 0.00 0.00 0.00 61 1015.3
20260507021829 24 211 3.2 9.7 0.00 0.00 0.00 61 1015.2
20260507021502 23 267 1.6 9.7 0.00 0.00 0.00 61 1015.1
20260507021332 24 277 1.6 9.7 0.00 0.00 0.00 61 1015.2
20260507020825 24 212 1.6 6.4 0.00 0.00 0.00 61 1015.1
20260507020359 24 196 3.2 6.4 0.00 0.00 0.00 61 1015.3
20260507020100 23 206 1.6 9.7 0.00 0.00 0.00 61 1015.1
20260507015821 23 225 3.2 9.7 0.00 0.00 0.00 61 1015.2
20260507015330 23 175 3.2 12.9 0.00 0.00 0.00 62 1015.1
20260507014823 23 204 3.2 12.9 0.00 0.00 0.00 62 1015.2
20260507014613 23 136 1.6 12.9 0.00 0.00 0.00 62 1015.2
20260507014326 23 193 1.6 3.2 0.00 0.00 0.00 62 1015.3
20260507013819 23 193 0.0 3.2 0.00 0.00 0.00 62 1015.2
20260507013352 24 193 1.6 4.8 0.00 0.00 0.00 62 1015.4
20260507013038 23 193 0.0 4.8 0.00 0.00 0.00 62 1015.3
20260507012905 24 193 0.0 4.8 0.00 0.00 0.00 61 1015.2
20260507012358 24 198 0.0 4.8 0.00 0.00 0.00 61 1015.3
20260507011830 24 198 1.6 9.7 0.00 0.00 0.00 61 1015.2
20260507011604 24 159 1.6 9.7 0.00 0.00 0.00 61 1014.8
20260507011334 24 165 0.0 9.7 0.00 0.00 0.00 61 1014.8
20260507010847 24 165 3.2 6.4 0.00 0.00 0.00 61 1015.1
20260507010339 24 152 1.6 6.4 0.00 0.00 0.00 60 1015.1
20260507010059 24 196 3.2 8.0 0.00 0.00 0.00 60 1014.9
20260507005831 24 203 3.2 8.0 0.00 0.00 0.00 60 1014.9
20260507005335 25 164 3.2 4.8 0.00 0.00 0.00 60 1015.0
20260507004828 25 169 3.2 9.7 0.00 0.00 0.00 60 1015.1
20260507004550 24 211 1.6 9.7 0.00 0.00 0.00 60 1015.0
20260507004341 25 209 3.2 9.7 0.00 0.00 0.00 60 1015.1
20260507003825 25 161 3.2 8.0 0.00 0.00 0.00 60 1015.0
20260507003355 25 198 3.2 9.7 0.00 0.00 0.00 60 1014.8
20260507003032 24 171 1.6 9.7 0.00 0.00 0.00 60 1014.7
20260507002823 25 183 3.2 9.7 0.00 0.00 0.00 60 1014.8
20260507002327 25 157 4.8 11.3 0.00 0.00 0.00 60 1014.6
20260507001820 25 213 1.6 11.3 0.00 0.00 0.00 60 1014.6
20260507001537 25 159 3.2 11.3 0.00 0.00 0.00 60 1014.5
20260507001333 25 223 4.8 11.3 0.00 0.00 0.00 61 1014.6
20260507000846 25 88 3.2 11.3 0.00 0.00 0.00 61 1014.6
20260507000329 25 198 3.2 11.3 0.00 0.00 0.00 62 1014.4
20260507000027 25 216 3.2 11.3 0.00 0.00 0.00 62 1014.3
20260506235822 25 190 3.2 11.3 0.00 0.00 0.00 62 1014.4
20260506235335 25 197 4.8 11.3 0.00 0.00 0.00 62 1014.3
20260506234848 25 170 3.2 9.7 0.00 0.00 0.00 62 1014.2
20260506234521 25 162 1.6 9.7 0.00 0.00 0.00 62 1014.2
20260506234331 25 188 1.6 9.7 0.00 0.00 0.00 62 1014.3
20260506233844 25 210 3.2 9.7 0.00 0.00 0.00 62 1014.4
20260506233328 26 171 4.8 9.7 0.00 0.00 0.00 62 1014.3
20260506233026 25 246 3.2 9.7 0.00 0.00 0.00 62 1014.3
20260506232821 26 156 1.6 6.4 0.00 0.00 0.00 61 1014.3
20260506232334 26 79 3.2 9.7 0.00 0.00 0.00 61 1014.2
20260506231838 26 269 1.6 14.5 0.00 0.00 0.00 61 1014.2
20260506231532 26 165 4.8 14.5 0.00 0.00 0.00 60 1014.1
20260506231330 26 119 3.2 14.5 0.00 0.00 0.00 61 1014.1
20260506230843 26 157 3.2 9.7 0.00 0.00 0.00 61 1014.2
20260506230344 26 64 3.2 12.9 0.00 0.00 0.00 61 1014.1
20260506230010 26 355 3.2 12.9 0.00 0.00 0.00 61 1014.1
20260506225836 26 109 4.8 12.9 0.00 0.00 0.00 61 1014.2
20260506225329 26 168 3.2 17.7 0.00 0.00 0.00 60 1014.2
20260506224826 26 227 4.8 11.3 0.00 0.00 0.00 60 1014.3
20260506224512 26 155 3.2 14.5 0.00 0.00 0.00 60 1014.3
20260506224409 26 225 4.8 14.5 0.00 0.00 0.00 60 1014.4
20260506223831 26 150 3.2 14.5 0.00 0.00 0.00 60 1014.3
20260506223324 26 50 4.8 14.5 0.00 0.00 0.00 60 1014.4
20260506223100 26 146 3.2 14.5 0.00 0.00 0.00 60 1014.3
20260506222828 27 94 4.8 14.5 0.00 0.00 0.00 60 1014.4
20260506222320 27 146 4.8 12.9 0.00 0.00 0.00 59 1014.4
20260506221834 27 225 4.8 12.9 0.00 0.00 0.00 59 1014.4
20260506221608 27 101 4.8 12.9 0.00 0.00 0.00 59 1014.2
20260506221337 27 158 6.4 12.9 0.00 0.00 0.00 59 1014.4
20260506220831 27 86 6.4 12.9 0.00 0.00 0.00 58 1014.3
20260506220343 27 158 4.8 12.9 0.00 0.00 0.00 59 1014.3
20260506220105 27 108 4.8 12.9 0.00 0.00 0.00 59 1014.2
20260506215828 27 100 3.2 12.9 0.00 0.00 0.00 59 1014.2
20260506215341 28 66 4.8 11.3 0.00 0.00 0.00 58 1014.2
20260506214833 28 92 4.8 9.7 0.00 0.00 0.00 59 1014.2
20260506214548 28 167 4.8 11.3 0.00 0.00 0.00 59 1014.1
20260506214346 28 215 3.2 9.7 0.00 0.00 0.00 59 1014.2
20260506213829 28 134 3.2 12.9 0.00 0.00 0.00 60 1014.1
20260506213322 28 109 6.4 16.1 0.00 0.00 0.00 59 1014.2
20260506213053 28 80 3.2 16.1 0.00 0.00 0.00 59 1014.1
20260506212838 28 217 4.8 16.1 0.00 0.00 0.00 59 1014.2
20260506212321 28 55 4.8 14.5 0.00 0.00 0.00 58 1014.2
20260506211834 29 95 3.2 14.5 0.00 0.00 0.00 58 1014.2
20260506211556 28 132 3.2 14.5 0.00 0.00 0.00 59 1014.2
20260506211347 29 123 3.2 16.1 0.00 0.00 0.00 58 1014.3
20260506210827 29 71 4.8 16.1 0.00 0.00 0.00 58 1014.3
20260506210429 29 68 6.4 16.1 0.00 0.00 0.00 57 1014.3
20260506210016 29 155 3.2 14.5 0.00 0.00 0.00 58 1014.3
20260506205831 29 195 3.2 14.5 0.00 0.00 0.00 57 1014.4
20260506205325 29 114 4.8 14.5 0.00 0.00 0.00 56 1014.5
20260506204829 29 174 4.8 12.9 0.00 0.00 0.00 56 1014.4
20260506204524 29 155 4.8 12.9 0.00 0.00 0.00 56 1014.3
20260506204321 29 72 6.4 11.3 0.00 0.00 0.00 56 1014.4
20260506203856 30 128 4.8 11.3 0.00 0.00 0.00 56 1014.5
20260506203348 29 100 3.2 11.3 0.00 0.00 0.00 57 1014.5
20260506203004 28 57 1.6 14.5 0.00 0.00 0.00 58 1014.3
20260506202831 29 201 3.2 14.5 0.00 0.00 0.00 58 1014.4
20260506202345 29 38 4.8 14.5 0.00 0.00 0.00 57 1014.5
20260506201837 29 309 4.8 14.5 0.00 0.00 0.00 57 1014.7
20260506201615 28 84 3.2 12.9 0.00 0.00 0.00 57 1014.5
20260506201321 29 113 4.8 14.5 0.00 0.00 0.00 57 1014.7
20260506200834 29 109 4.8 14.5 0.00 0.00 0.00 56 1014.8
20260506200323 29 186 3.2 16.1 0.00 0.00 0.00 57 1014.8
20260506200055 28 74 3.2 16.1 0.00 0.00 0.00 56 1014.8
20260506195856 29 168 4.8 16.1 0.00 0.00 0.00 56 1014.9
20260506195319 29 115 4.8 11.3 0.00 0.00 0.00 56 1015.0
20260506194848 29 154 4.8 20.9 0.00 0.00 0.00 55 1015.0
20260506194517 28 279 4.8 20.9 0.00 0.00 0.00 54 1015.0
20260506194320 29 194 8.0 20.9 0.00 0.00 0.00 54 1015.0
20260506193833 29 77 4.8 12.9 0.00 0.00 0.00 54 1015.1
20260506193348 30 178 6.4 14.5 0.00 0.00 0.00 54 1015.2
20260506193104 29 166 3.2 14.5 0.00 0.00 0.00 56 1015.1
20260506192829 29 90 4.8 19.3 0.00 0.00 0.00 55 1015.2
20260506192322 29 96 4.8 19.3 0.00 0.00 0.00 55 1015.3
20260506191856 30 30 6.4 16.1 0.00 0.00 0.00 54 1015.3
20260506191549 29 90 4.8 16.1 0.00 0.00 0.00 54 1015.4
20260506191348 30 9 4.8 16.1 0.00 0.00 0.00 54 1015.5
20260506190840 30 91 6.4 12.9 0.00 0.00 0.00 55 1015.4
20260506190324 30 80 4.8 11.3 0.00 0.00 0.00 55 1015.6
20260506190032 30 146 3.2 11.3 0.00 0.00 0.00 55 1015.5
20260506185857 30 149 4.8 14.5 0.00 0.00 0.00 55 1015.6
20260506185329 30 76 4.8 14.5 0.00 0.00 0.00 54 1015.7
20260506184832 30 88 4.8 12.9 0.00 0.00 0.00 54 1015.6
20260506184517 30 123 3.2 12.9 0.00 0.00 0.00 55 1015.6
20260506184325 30 196 4.8 12.9 0.00 0.00 0.00 54 1015.6
20260506183858 30 248 3.2 14.5 0.00 0.00 0.00 54 1015.8
20260506183330 30 60 4.8 14.5 0.00 0.00 0.00 53 1015.8
20260506183104 30 186 4.8 14.5 0.00 0.00 0.00 52 1015.8
20260506182830 30 355 3.2 14.5 0.00 0.00 0.00 53 1015.9
20260506182343 30 159 3.2 11.3 0.00 0.00 0.00 53 1015.9
20260506181836 31 52 3.2 12.9 0.00 0.00 0.00 51 1015.9
20260506181549 30 94 3.2 12.9 0.00 0.00 0.00 50 1015.8
20260506181319 31 176 4.8 12.9 0.00 0.00 0.00 51 1016.0
20260506180832 31 36 3.2 9.7 0.00 0.00 0.00 50 1016.0
20260506180326 31 224 6.4 14.5 0.00 0.00 0.00 43 1016.1
20260506180053 31 169 3.2 14.5 0.00 0.00 0.00 43 1016.0
20260506175839 31 223 6.4 14.5 0.00 0.00 0.00 44 1016.2
20260506175322 31 94 4.8 9.7 0.00 0.00 0.00 46 1016.2
20260506174837 31 131 1.6 9.7 0.00 0.00 0.00 45 1016.2
20260506174557 31 176 3.2 9.7 0.00 0.00 0.00 45 1016.2
20260506174320 31 197 1.6 9.7 0.00 0.00 0.00 45 1016.3
20260506173905 31 116 3.2 8.0 0.00 0.00 0.00 46 1016.4
20260506173346 30 209 3.2 12.9 0.00 0.00 0.00 49 1016.5
20260506173019 30 207 4.8 12.9 0.00 0.00 0.00 48 1016.5
20260506172909 30 161 6.4 12.9 0.00 0.00 0.00 48 1016.6
20260506172351 30 187 4.8 9.7 0.00 0.00 0.00 47 1016.6
20260506171823 30 188 6.4 14.5 0.00 0.00 0.00 47 1016.7
20260506171554 30 213 4.8 14.5 0.00 0.00 0.00 48 1016.7
20260506171336 30 150 8.0 14.5 0.00 0.00 0.00 47 1016.8
20260506170905 30 213 4.8 9.7 0.00 0.00 0.00 49 1016.8
20260506170356 30 206 6.4 14.5 0.00 0.00 0.00 49 1016.8
20260506170008 29 225 6.4 14.5 0.00 0.00 0.00 49 1016.8
20260506165819 30 254 6.4 14.5 0.00 0.00 0.00 48 1016.9
20260506165332 30 202 8.0 11.3 0.00 0.00 0.00 49 1017.0
20260506164845 30 204 4.8 14.5 0.00 0.00 0.00 50 1016.9
20260506164512 29 214 3.2 14.5 0.00 0.00 0.00 49 1016.9
20260506164328 30 198 6.4 14.5 0.00 0.00 0.00 48 1017.0
20260506163822 29 202 4.8 11.3 0.00 0.00 0.00 50 1017.2
20260506163325 29 219 6.4 12.9 0.00 0.00 0.00 50 1017.3
20260506163030 29 174 6.4 12.9 0.00 0.00 0.00 51 1017.2
20260506162839 29 169 6.4 16.1 0.00 0.00 0.00 51 1017.3
20260506162332 29 190 6.4 16.1 0.00 0.00 0.00 50 1017.4
20260506161837 28 215 4.8 16.1 0.00 0.00 0.00 52 1017.4
20260506161524 28 219 4.8 16.1 0.00 0.00 0.00 51 1017.3
20260506161330 28 174 6.4 16.1 0.00 0.00 0.00 51 1017.4
20260506160842 28 203 8.0 17.7 0.00 0.00 0.00 51 1017.3
20260506160334 28 171 9.7 22.5 0.00 0.00 0.00 51 1017.4
20260506160012 28 229 4.8 22.5 0.00 0.00 0.00 52 1017.5
20260506155837 28 194 8.0 22.5 0.00 0.00 0.00 51 1017.5
20260506155330 28 189 6.4 14.5 0.00 0.00 0.00 52 1017.5
20260506154843 28 198 6.4 16.1 0.00 0.00 0.00 53 1017.4
20260506154511 27 200 4.8 16.1 0.00 0.00 0.00 53 1017.4
20260506154327 28 159 6.4 16.1 0.00 0.00 0.00 53 1017.4
20260506153819 27 198 8.0 16.1 0.00 0.00 0.00 53 1017.5
20260506153349 27 227 4.8 11.3 0.00 0.00 0.00 54 1017.4
20260506153059 27 167 4.8 12.9 0.00 0.00 0.00 54 1017.3
20260506152828 27 267 6.4 12.9 0.00 0.00 0.00 54 1017.4
20260506152321 27 202 4.8 14.5 0.00 0.00 0.00 54 1017.3
20260506151835 27 182 6.4 14.5 0.00 0.00 0.00 54 1017.3
20260506151602 27 206 6.4 14.5 0.00 0.00 0.00 54 1017.3
20260506151318 27 217 4.8 11.3 0.00 0.00 0.00 54 1017.2
20260506150852 27 217 6.4 9.7 0.00 0.00 0.00 54 1017.2
20260506150324 27 178 3.2 9.7 0.00 0.00 0.00 55 1017.3
20260506150045 26 145 3.2 16.1 0.00 0.00 0.00 56 1017.2
20260506145836 27 201 4.8 16.1 0.00 0.00 0.00 56 1017.3
20260506145321 26 187 8.0 16.1 0.00 0.00 0.00 54 1017.3
20260506144833 26 207 6.4 16.1 0.00 0.00 0.00 55 1017.2
20260506144550 26 232 6.4 16.1 0.00 0.00 0.00 55 1017.2
20260506144346 26 207 4.8 17.7 0.00 0.00 0.00 56 1017.3
20260506143830 26 174 6.4 17.7 0.00 0.00 0.00 56 1017.2
20260506143323 26 188 6.4 12.9 0.00 0.00 0.00 56 1017.2
20260506143054 26 241 8.0 16.1 0.00 0.00 0.00 56 1017.2
20260506142856 26 211 4.8 16.1 0.00 0.00 0.00 58 1017.2
20260506142347 26 218 8.0 16.1 0.00 0.00 0.00 58 1017.2
20260506141852 25 218 6.4 16.1 0.00 0.00 0.00 58 1017.2
20260506141516 25 206 4.8 12.9 0.00 0.00 0.00 59 1017.1
20260506141324 25 193 6.4 12.9 0.00 0.00 0.00 59 1017.2
20260506140837 25 165 6.4 16.1 0.00 0.00 0.00 59 1017.1
20260506140347 25 222 8.0 17.7 0.00 0.00 0.00 60 1017.1
20260506140105 25 207 8.0 17.7 0.00 0.00 0.00 60 1017.1
20260506135829 25 237 8.0 17.7 0.00 0.00 0.00 60 1017.1
20260506135321 25 235 8.0 24.1 0.00 0.00 0.00 60 1017.2